AL7BX-WX Weather Reports


Display with metric or nautical units.
time (UTC)temp
F
wind
direction
speed
MPH
gust
MPH
rain 1hr
in
rain 24hr
in
rain mn
in
humidity
%
barometer
mb
20260505040903 53 166 3.0 9.0 0.00 0.00 0.00 32
20260505040004 53 166 3.0 8.0 0.00 0.00 0.00 33
20260505035403 53 164 4.0 12.0 0.00 0.00 0.00 33
20260505034503 53 171 3.0 8.0 0.00 0.00 0.00 33
20260505033603 53 176 4.0 10.0 0.00 0.00 0.00 34
20260505032703 54 171 5.0 11.0 0.00 0.00 0.00 34
20260505031803 54 185 4.0 10.0 0.00 0.00 0.00 34
20260505030903 54 182 6.0 11.0 0.00 0.00 0.00 34
20260505030003 54 184 7.0 13.0 0.00 0.00 0.00 34
20260505025403 55 184 7.0 13.0 0.00 0.00 0.00 34
20260505024503 55 186 8.0 15.0 0.00 0.00 0.00 34
20260505023814 55 188 8.0 15.0 0.00 0.00 0.00 33
20260505022703 56 194 6.0 13.0 0.00 0.00 0.00 34
20260505021803 57 194 7.0 17.0 0.00 0.00 0.00 34
20260505020903 58 195 8.0 17.0 0.00 0.00 0.00 34
20260505020213 58 190 10.0 21.0 0.00 0.00 0.00 35
20260505015403 59 187 10.0 21.0 0.00 0.00 0.00 35
20260505014714 59 192 9.0 17.0 0.00 0.00 0.00 36
20260505013603 59 197 9.0 18.0 0.00 0.00 0.00 37
20260505012703 60 198 7.0 15.0 0.00 0.00 0.00 38
20260505011803 60 192 10.0 19.0 0.00 0.00 0.00 38
20260505010903 60 191 10.0 17.0 0.00 0.00 0.00 38
20260505010003 61 190 10.0 20.0 0.00 0.00 0.00 37
20260505005612 62 193 9.0 20.0 0.00 0.00 0.00 37
20260505004503 62 189 11.0 19.0 0.00 0.00 0.00 37
20260505003813 63 193 10.0 19.0 0.00 0.00 0.00 37
20260505002912 63 190 11.0 19.0 0.00 0.00 0.00 37
20260505001803 62 193 8.0 17.0 0.00 0.00 0.00 36
20260505001113 62 190 9.0 22.0 0.00 0.00 0.00 36
20260505000003 62 197 8.0 15.0 0.00 0.00 0.00 35
20260504235403 63 195 9.0 18.0 0.00 0.00 0.00 35
20260504234503 64 189 9.0 23.0 0.00 0.00 0.00 34
20260504233813 64 178 9.0 18.0 0.00 0.00 0.00 33
20260504232703 64 206 10.0 19.0 0.00 0.00 0.00 34
20260504232013 64 203 9.0 18.0 0.00 0.00 0.00 33
20260504231113 64 190 10.0 21.0 0.00 0.00 0.00 33
20260504230003 64 197 12.0 21.0 0.00 0.00 0.00 33
20260504225403 64 210 10.0 21.0 0.00 0.00 0.00 33
20260504224503 65 202 11.0 21.0 0.00 0.00 0.00 34
20260504223603 65 205 10.0 23.0 0.00 0.00 0.00 34
20260504222703 66 203 11.0 20.0 0.00 0.00 0.00 33
20260504222013 66 203 11.0 22.0 0.00 0.00 0.00 33
20260504220903 67 204 11.0 20.0 0.00 0.00 0.00 31
20260504220003 66 206 10.0 21.0 0.00 0.00 0.00 32
20260504215403 66 208 10.0 20.0 0.00 0.00 0.00 33
20260504214713 67 209 10.0 21.0 0.00 0.00 0.00 32
20260504213603 67 203 10.0 21.0 0.00 0.00 0.00 32
20260504212703 67 211 9.0 23.0 0.00 0.00 0.00 32
20260504211803 66 208 10.0 23.0 0.00 0.00 0.00 32
20260504210903 66 220 8.0 16.0 0.00 0.00 0.00 33
20260504210004 67 183 11.0 20.0 0.00 0.00 0.00 33
20260504205403 68 175 11.0 24.0 0.00 0.00 0.00 32
20260504204714 68 180 12.0 24.0 0.00 0.00 0.00 33
20260504203603 67 203 12.0 21.0 0.00 0.00 0.00 33
20260504202703 66 207 11.0 19.0 0.00 0.00 0.00 35
20260504201803 66 209 10.0 20.0 0.00 0.00 0.00 36
20260504200903 66 204 10.0 21.0 0.00 0.00 0.00 36
20260504200003 66 211 9.0 21.0 0.00 0.00 0.00 36
20260504195403 66 216 10.0 21.0 0.00 0.00 0.00 36
20260504194503 66 208 9.0 18.0 0.00 0.00 0.00 38
20260504193813 67 198 8.0 18.0 0.00 0.00 0.00 36
20260504192703 66 201 9.0 17.0 0.00 0.00 0.00 35
20260504191803 66 212 9.0 22.0 0.00 0.00 0.00 38
20260504191113 66 212 10.0 21.0 0.00 0.00 0.00 40
20260504190003 65 193 10.0 19.0 0.00 0.00 0.00 39
20260504185403 66 195 9.0 19.0 0.00 0.00 0.00 40
20260504184503 65 188 10.0 19.0 0.00 0.00 0.00 41
20260504183603 65 185 10.0 18.0 0.00 0.00 0.00 40
20260504182703 64 177 10.0 17.0 0.00 0.00 0.00 39
20260504181803 63 175 10.0 18.0 0.00 0.00 0.00 42
20260504180903 64 194 12.0 23.0 0.00 0.00 0.00 42
20260504180214 65 188 12.0 20.0 0.00 0.00 0.00 41
20260504175403 63 186 12.0 22.0 0.00 0.00 0.00 43
20260504174503 61 189 10.0 19.0 0.00 0.00 0.00 48
20260504173603 61 195 10.0 21.0 0.00 0.00 0.00 45
20260504172703 63 206 3.0 19.0 0.00 0.00 0.00 42
20260504172013 62 234 1.0 4.0 0.00 0.00 0.00 45
20260504170903 62 269 4.0 7.0 0.00 0.00 0.00 45
20260504170214 62 273 4.0 7.0 0.00 0.00 0.00 47
20260504150903 56 144 5.0 14.0 0.00 0.00 0.00 52
20260504140903 54 171 2.0 3.0 0.00 0.00 0.00 65
20260504081803 47 80 0.0 2.0 0.00 0.00 0.00 60
20260504080903 47 80 1.0 4.0 0.00 0.00 0.00 57
20260504050003 58 159 2.0 4.0 0.00 0.00 0.00 42
20260504045613 58 154 2.0 6.0 0.00 0.00 0.00 42
20260504044712 58 157 1.0 7.0 0.00 0.00 0.00 42
20260504043603 59 284 0.0 2.0 0.00 0.00 0.00 40